OBJECT E, 60749

Orbit data source: Space-Track

You're viewing an Uncataloged Satellite

Recently launched and/or uncataloged satellites may have evolving metadata. Metadata may include but not limited to: Owner, Maufacturer, Bus, Motor, and Mission.

OBJECT E, 60749 is a satellite owned by Taizhou Xingkong (CN) in SSO that was launched on Thu, 29 Aug 2024 UTC via a GUSHENXING 1 launch vehicle from the Yellow Sea Launch Area, China (YSLA). Unknown objects in Earth's orbit typically refer to objects detected orbiting the Earth but have not yet been identified or cataloged. These objects could be anything from previously untracked satellites, spent rocket stages, debris from satellite collisions, or even natural meteoroids temporarily captured by Earth's gravity.

Loading next visibility...
Identifier
60749, 2024-153E
Orbit
SSO
Country
Flag of CNCN / PRC
Related business
None
Manufacturer
Shanghai ASES
Mission
Operational Commercial Imaging
Bus & Motor
SUXING, Unknown motor
Mass
~50 kg wet, ~50 kg dry
Launch date (UTC)
2024-08-29 (1 year ago)
Launch vehicle
GUSHENXING 1
Launch site
Yellow Sea Launch Area, China (YSLA)
Object type
Unknown
Shape & HBR
Box + 1 Pan, 2.5 m
Radar Cross Section
5.339 m², Medium (>0.1 m² and < 1m²)

Expand to show TLE details & history
Last TLE update: 5 days ago

TLE from 5 days ago
0 OBJECT E
1 60749U 24153E   25238.49616602  .00010885  00000-0  49309-3 0  9995
2 60749  97.6446   5.4703 0008611 147.1390 213.0382 15.21015419 55002
Epoch: 2025-08-26T11:54Z
TLE epoch observation values (Epoch: 2025-08-26T11:54:28.744Z)
Latitude
Longitude
-148.13651°
Altitude
510.831 km
Speed
7.606 km/s
True Right ascension
00h 21m 52s
True Declination
0° 00' 00"
Sunlit
Object was in full shadow at epoch
Visualization orbit readout
Latitude
Unknown
Longitude
Unknown
Altitude
Unknown
Speed
Unknown
Apparent Right ascension
Unknown
Apparent Declination
Unknown
Sunlit
N/A
Visualization observer readout
Local Sidereal Time
15:35:51
Azimuth
Unknown
Elevation
Unknown
Doppler factor
Unknown
Orbital elements
Apogee altitude
505.674 km
Perigee altitude
493.829 km
Semi-major axis
6,877.888 km
Eccentricity
0.00086
Inclination
97.6446°
RAAN
5.4703°
Arg. of periapsis
147.139°
True anomaly
212.98445°
Mean anomaly
213.0382°
Eccentric anomaly
213.01132°
Mean motion
3.80505 °/min
Orbital period
94.61 mins
BSTAR
0.00049309
Loading maneuver chart data...
Computing Atmospheric mass density...
Loading historical data...
Loading historical data...
Loading historical data...
Loading historical data...
Loading historical data...
Loading historical data...
Loading historical data...

Documentation

Showing up to 5 results
|